{"data":{"norad_id":47728,"intl_designator":"2021-017G","name":"STARLINK-2131","alt_names":[],"object_type":"PAYLOAD","status":"ACTIVE","operator":null,"country":"US","launch_date":"2021-03-04","launch_site_code":"AFETR","launch_vehicle":null,"mission":null,"orbit_class":"UNKNOWN","rcs_meters":null,"size_class":null,"mass_kg":null,"dimensions":null,"purposes":["comms"],"wikipedia_slug":null,"has_3d_model":false,"image_url":null,"decayed_at":null,"tle_current":{"epoch":"2026-05-25T03:49:21.531072Z","epoch_age_seconds":71362,"freshness":"FRESH","line1":"1 47728U 21017G   26145.15927698  .00051177  00000+0  10556-2 0  9993","line2":"2 47728  53.0725 203.2254 0006466   0.2461 359.8547 15.45382602289663","mean_motion":15.45382602,"eccentricity":0.0006466,"inclination_deg":53.0725,"raan_deg":203.2254,"arg_perigee_deg":0.2461,"mean_anomaly_deg":359.8547,"bstar":0.0010556,"rev_number":28966,"period_min":93.180808308336,"perigee_km":425.85179814752,"apogee_km":434.656409523,"semimajor_km":6808.3911038353,"source":"CELESTRAK","updated_at":"2026-05-25T13:38:16.564531Z"}}}